Morteza Khodadad

Chefscout - Padideh
3 Dez 2028
Sonntag
Verarbeitung

Persönlichkeit

Anpassungsfähigkeit (4) Ehrgeiz (18) Kontroverse (11) Loyalität (20) Druck (19) Professionalität (19) Fairness (7) Temperament (13)

Profil

Trainerstil Demokratisch
Lizenz Kontinentale C
Entschlossenheit 8
Menschenführung 11
Motivation 4
Disziplin 6
Arbeitszufriedenheit
100%
Ermüdung
0%
Rolle Chefscout
Gehalt 45.7K p/W
Vertrag 14.03.2029

Leistung

Verhalten Gut
Trainingseffektivität
36%
Spielerentwicklung
40%
Verletzungsprävention
45%
Taktische Umsetzung
50%

Letzte Ereignisse

Nahm an einer Scouting-Besprechung teil 7T her
Nahm an einer Scouting-Besprechung teil 7T her
Nahm an einer Scouting-Besprechung teil 14T her
Nahm an einer Scouting-Besprechung teil 14T her
Nahm an einer Scouting-Besprechung teil 21T her
Nahm an einer Scouting-Besprechung teil 21T her
Nahm an einer Scouting-Besprechung teil 28T her
Nahm an einer Scouting-Besprechung teil 28T her

Aktuell beobachtet

82
Spieler Verein Status Fähigkeit Vertrauen Beobachtet Zuletzt beobachtet Letzte Stimme
Jayden Danns Bradford City Aktiv 140 / 159 40% 1 31.05.2028 -
Paddy Lane Reading Aktiv 102 / 98 40% 1 31.05.2028 -
Malik Mothersille Stockport County Aktiv 102 / 108 40% 2 28.07.2027 -
Wandile Duba ASO Chlef Aktiv 88 / 131 40% 1 02.06.2027 -
Elijah Adebayo Luton Town Aktiv 127 / 137 40% 2 31.05.2027 -
Amir Hossein Hosseinzadeh Tractor Aktiv 113 / 112 40% 6 28.05.2027 -
Ilyas Ansah Hull City Aktiv 147 / 136 40% 1 27.05.2027 -
Marezi Portsmouth Aktiv 133 / 110 40% 2 26.05.2027 -
Simone Mazzocchi Cosenza Aktiv 122 / 97 40% 1 23.05.2027 -
Sam Greenwood Bristol City Aktiv 112 / 134 40% 1 14.05.2027 -
Lorent Tolaj Plymouth Argyle Aktiv 126 / 133 40% 1 13.05.2027 -
Aidomo Emakhu Oxford United Aktiv 134 / 117 40% 1 06.05.2027 -
Sam Nombe Milton Keynes Dons Aktiv 93 / 116 40% 1 06.05.2027 -
Isaiah Jones Luton Town Aktiv 136 / 138 40% 3 08.03.2027 -
Joe Gelhardt Hull City Aktiv 152 / 111 40% 1 08.03.2027 -
Darragh Burns Grimsby Town Aktiv 122 / 107 40% 1 03.03.2027 -
Max Bird Birmingham Aktiv 130 / 135 40% 1 03.03.2027 -
Saeid Pouraliganji Rah Ahan Aktiv 125 / 100 40% 2 02.03.2027 Mehr Infos nötig
Richard Koné Queens Park Rangers Aktiv 126 / 116 40% 1 02.03.2027 -
Majid Moharrami Rah Ahan Aktiv 97 / 120 40% 2 19.01.2027 -
Dardan Shabanhaxhaj Rubin Aktiv 126 / 133 40% 1 01.01.2027 -
Yeangel Montero Naxxar Lions Aktiv 115 / 120 40% 1 31.12.2026 -
Ollie Watkins Al-Hilal Aktiv 165 / 140 40% 2 30.12.2026 -
Mohammad Reza Soleimani Foolad Aktiv 107 / 103 40% 2 29.12.2026 -
Egas Cacintura Akhmat Grozny Aktiv 111 / 137 40% 1 29.12.2026 -
Martin Sekulić Ural Aktiv 119 / 92 40% 1 28.12.2026 -
Hojjat Ahmadi Esteghlal Khuzestan Aktiv 101 / 111 40% 3 27.12.2026 -
Omid Latifi Zob Ahan Aktiv 103 / 103 40% 2 27.12.2026 -
Mohammad Hosseini Malavan Aktiv 134 / 122 40% 4 27.12.2026 -
Rody Junior Effaghe Aris Aktiv 85 / 95 40% 1 27.12.2026 -
Mohamed Konaté Akhmat Grozny Aktiv 120 / 121 40% 3 26.12.2026 -
José Martínes CSKA 1948 Aktiv 102 / 123 40% 1 26.12.2026 -
Brayan Gil Baltika Aktiv 122 / 133 40% 2 24.12.2026 -
Federico Martínez MFK Ruzomberok Aktiv 108 / 103 40% 1 24.12.2026 -
Christian Annan Liberty Professionals Aktiv 82 / 89 40% 1 23.12.2026 -
Krisztofer Horváth Ujpest Aktiv 93 / 95 40% 1 21.12.2026 -
Matej Trusa DAC Dunajska Streda Aktiv 112 / 102 40% 2 19.12.2026 -
Ioannis Pittas CSKA Sofia Aktiv 109 / 105 40% 2 15.12.2026 -
Ali Alipour Persepolis Aktiv 112 / 123 40% 2 14.12.2026 -
Robert Murić Floriana Aktiv 112 / 115 40% 1 12.12.2026 -
Masoud Zayer Kazemayn Tractor Aktiv 88 / 97 40% 2 08.12.2026 -
Erik Botheim Viking Aktiv 122 / 135 40% 4 03.12.2026 -
Daniel Karlsbakk Sarpsborg 08 Aktiv 106 / 122 40% 2 02.12.2026 -
Domagoj Drožđek Tractor Aktiv 117 / 116 40% 3 02.12.2026 -
Duckens Nazon Esteghlal Aktiv 126 / 123 40% 2 02.12.2026 -
Stanislav Ivanov Arda Aktiv 139 / 131 40% 1 22.11.2026 -
Will Swan Bradford City Aktiv 114 / 120 40% 1 22.11.2026 -
Leandro Godoy CSKA Sofia Aktiv 106 / 103 40% 1 21.11.2026 -
Berna CSKA 1948 Aktiv 93 / 110 40% 4 19.11.2026 -
Steven Bergwijn Al-Ittihad Aktiv 148 / 132 40% 4 16.11.2026 -
Samuel Kalu Botev Plovdiv Aktiv 103 / 118 40% 1 15.11.2026 -
Mamadou Sylla Al-Riyadh Aktiv 135 / 117 40% 1 15.11.2026 -
Jacques Siwe Rubin Aktiv 113 / 131 40% 3 13.11.2026 -
Armstrong Oko-Flex Levski Aktiv 131 / 96 40% 2 13.11.2026 -
Mehdi Ghayedi Al Nasr Aktiv 141 / 117 40% 1 13.11.2026 -
Mohammad Vafaei Foolad Aktiv 113 / 120 40% 2 09.11.2026 -
Kwadwo Duah Ludogorets Aktiv 115 / 119 40% 1 06.11.2026 -
Mark Španring NK Maribor Aktiv 89 / 91 40% 1 04.11.2026 -
Jamie Reid Stevenage Aktiv 97 / 121 40% 1 01.11.2026 -
Marcelo Torres Gimnasia La Plata Aktiv 115 / 141 40% 2 31.10.2026 -
Ammar Ramadan DAC Dunajska Streda Aktiv 103 / 123 40% 1 31.10.2026 -
Tio Cipot NK Maribor Aktiv 104 / 116 40% 1 24.10.2026 -
Saeid Saharkhizan Sepahan Aktiv 102 / 124 40% 1 17.10.2026 -
Ole Sæter Valerenga Aktiv 113 / 118 40% 1 12.10.2026 -
Dániel Gera Persepolis Aktiv 107 / 95 40% 1 10.10.2026 -
Isaac Matondo Koper Aktiv 131 / 94 40% 1 07.10.2026 -
Vyacheslav Grulev Nizhniy Novgorod Aktiv 107 / 133 40% 1 06.10.2026 -
Mohammed Reza Azadi Esteghlal Aktiv 91 / 115 40% 1 04.10.2026 -
Amir Hosseini Rah Ahan Aktiv 94 / 92 40% 3 03.10.2026 -
Örvar Eggertsson Stjarnan Aktiv 97 / 124 40% 1 02.10.2026 -
Luis Caicedo Spartak 1918 Aktiv 110 / 70 40% 1 25.09.2026 -
Louis Appéré Cambridge United Aktiv 84 / 74 40% 1 23.09.2026 -
Rafael Moreno Atletico Venezuela Aktiv 109 / 129 40% 1 19.09.2026 -
Will Davies Fleetwood Town Aktiv 102 / 79 40% 1 18.09.2026 -
Franko Kovačević Ferencvaros Aktiv 118 / 136 40% 1 16.09.2026 -
Genaro Rossi San Martín SJ Aktiv 123 / 92 40% 1 15.09.2026 -
Yegor Kortsov Dinamo Brest Aktiv 86 / 97 40% 1 14.09.2026 -
Csanád Vilmos Dénes Debrecen Aktiv 100 / 86 40% 1 09.09.2026 -
José Barragán Zamora Aktiv 85 / 99 40% 1 08.09.2026 -
Agustín Bianciotti Metropolitanos Aktiv 78 / 97 40% 1 27.08.2026 -
Jesús Vallejo Albacete Aktiv 151 / 105 40% 1 02.08.2026 -
Jan Paul van Hecke Tottenham Aktiv 146 / 142 40% 1 01.08.2026 -